This is the latest recevied weather packets stored in our database for station/object WY7EM. If no packets are shown the sender has not sent any weather packets the latest 10 day(s).
| Time | Temp. | Humidity | Pressure | Rain* | Wind** | Luminosity | Snow |
|---|---|---|---|---|---|---|---|
| 1778288593 | 31.11° C | 15% | 1010.1 hPa | 0 mm | - | 100 W/m² | - |
| 1778288290 | 31.67° C | 15% | 1010.2 hPa | 0 mm | - | 116 W/m² | - |
| 1778287988 | 31.11° C | 15% | 1010.2 hPa | 0 mm | - | 129 W/m² | - |
| 1778287688 | 30.56° C | 15% | 1010.3 hPa | 0 mm | - | 118 W/m² | - |
| 1778287384 | 30.56° C | 15% | 1010.2 hPa | 0 mm | - | 83 W/m² | - |
| 1778287082 | 30.56° C | 15% | 1010.2 hPa | 0 mm | - | 85 W/m² | - |
| 1778286780 | 30.56° C | 16% | 1010.3 hPa | 0 mm | - | 87 W/m² | - |
| 1778286477 | 30.56° C | 16% | 1010.3 hPa | 0 mm | - | 87 W/m² | - |
| 1778286174 | 30.56° C | 16% | 1010.3 hPa | 0 mm | - | 82 W/m² | - |
| 1778285872 | 30.56° C | 15% | 1010.3 hPa | 0 mm | - | 76 W/m² | - |
| 1778285567 | 31.11° C | 15% | 1010.4 hPa | 0 mm | - | 80 W/m² | - |
| 1778285265 | 31.11° C | 15% | 1010.5 hPa | 0 mm | - | 83 W/m² | - |
| 1778284962 | 32.22° C | 15% | 1010.3 hPa | 0 mm | - | 102 W/m² | - |
| 1778284659 | 31.67° C | 15% | 1010.2 hPa | 0 mm | - | 272 W/m² | - |
| 1778284356 | 31.67° C | 15% | 1010.4 hPa | 0 mm | - | 131 W/m² | - |
| 1778284053 | 32.78° C | 14% | 1010.4 hPa | 0 mm | - | 142 W/m² | - |
| 1778283750 | 32.22° C | 14% | 1010.3 hPa | 0 mm | - | 470 W/m² | - |
| 1778283449 | 32.78° C | 14% | 1010.2 hPa | 0 mm | - | 480 W/m² | - |
| 1778283147 | 32.78° C | 14% | 1010.5 hPa | 0 mm | - | 495 W/m² | - |
| 1778282844 | 31.11° C | 14% | 1010.4 hPa | 0 mm | - | 516 W/m² | - |
| 1778282540 | 31.11° C | 15% | 1010.5 hPa | 0 mm | - | 115 W/m² | - |
| 1778282238 | 32.22° C | 14% | 1010.7 hPa | 0 mm | - | 146 W/m² | - |
| 1778281935 | 32.78° C | 14% | 1010.5 hPa | 0 mm | - | 531 W/m² | - |
| 1778281632 | 32.78° C | 14% | 1010.5 hPa | 0 mm | - | 531 W/m² | - |
| 1778281328 | 31.67° C | 14% | 1010.5 hPa | 0 mm | - | 529 W/m² | - |
* Rain latest hour (hover to see other rain measurements)
** Current wind speed in m/s (hover to see current wind gust speed)